Whyalla, Australia

3:57 AM ACDT on February 20, 2017 (GMT +1030)
Whyalla

Weather History for 94664 - April, 2013

Change the Weather History Date:

Sunday, April 28, 2013

  Actual Average Record
Temperature  
Mean Temperature 63 °F -  
Max Temperature 71 °F - - ()
Min Temperature 55 °F - - ()
Degree Days  
Heating Degree Days 2    
Growing Degree Days 13 (Base 50)    
Moisture  
Dew Point 53 °F    
Average Humidity 66    
Maximum Humidity 88    
Minimum Humidity 27    
Precipitation  
Precipitation 0.00 in - - ()
Sea Level Pressure  
Sea Level Pressure 30.04 in    
Wind  
Wind Speed 7 mph ()    
Max Wind Speed 14 mph    
Max Gust Speed -    
Visibility 6.2 miles    
Events      
T = Trace of Precipitation, MM = Missing Value Source: Averaged Metar Reports

Daily Weather History Graph

Daily Weather History Graph

Search for Another Location

Airport or City:

Trip Planner

Search our weather history database for the weather conditions in past years. The results will help you decide how hot, cold, wet, or windy it might be!

Date:

Astronomy

Apr. 28, 2013 Rise Set
Actual Time 6:50 AM ACST 5:43 PM ACST
Civil Twilight 6:25 AM ACST 6:09 PM ACST
Nautical Twilight 5:56 AM ACST 6:38 PM ACST
Astronomical Twilight 5:27 AM ACST 7:07 PM ACST
Moon 7:51 PM ACST (4/28) 9:12 AM ACST (4/28)
Length of Visible Light 11h 43m
Length of Day
10h 52m
Waning Gibbous, 93% of the Moon is Illuminated
Apr 28
Waning Gibbous
May 2
Last Quarter
May 10
New
May 18
First Quarter
May 25
Full

Hourly Weather History & Observations

Time (ACST) Temp. Dew Point Humidity Pressure Visibility Wind Dir Wind Speed Gust Speed Precip Events Conditions
12:30 AM 71.6 °F 35.6 °F 27% 29.95 in 6.2 mi NNW 13.8 mph - N/A   Unknown
1:30 AM 64.4 °F 33.8 °F 32% 29.98 in 6.2 mi WSW 8.1 mph - N/A   Unknown
2:30 AM 60.8 °F 35.6 °F 39% 29.98 in 6.2 mi North 8.1 mph - N/A   Unknown
3:30 AM 57.2 °F 35.6 °F 44% 29.98 in 6.2 mi West 4.6 mph - N/A   Unknown
4:30 AM 57.2 °F 37.4 °F 48% 29.98 in 6.2 mi WNW 5.8 mph - N/A   Unknown
5:30 AM 55.4 °F 37.4 °F 51% 30.01 in 6.2 mi WNW 6.9 mph - N/A   Unknown
6:30 AM 55.4 °F 39.2 °F 54% 30.01 in 6.2 mi NNW 5.8 mph - N/A   Scattered Clouds
7:30 AM 55.4 °F 44.6 °F 67% 30.04 in 6.2 mi NW 5.8 mph - N/A   Unknown
8:01 AM 59.0 °F 48.2 °F 67% 30.04 in 6.2 mi NW 4.6 mph - N/A   Mostly Cloudy
8:30 AM 64.4 °F 55.4 °F 73% 30.06 in 6.2 mi West 3.5 mph - N/A   Overcast
8:58 AM 64.4 °F 55.4 °F 73% 30.06 in 6.2 mi Calm Calm - N/A   Mostly Cloudy
9:05 AM 66.2 °F 55.4 °F 68% 30.06 in 6.2 mi Calm Calm - N/A   Overcast
9:31 AM 68.0 °F 59.0 °F 73% 30.06 in 6.2 mi North 1.2 mph - N/A   Mostly Cloudy
9:49 AM 68.0 °F 60.8 °F 78% 30.06 in 6.2 mi SE 4.6 mph - N/A   Scattered Clouds
10:30 AM 69.8 °F 60.8 °F 73% 30.06 in 6.2 mi SSE 8.1 mph - N/A   Unknown
11:30 AM 71.6 °F 60.8 °F 69% 30.06 in 6.2 mi ESE 8.1 mph - N/A   Scattered Clouds
12:30 PM 71.6 °F 59.0 °F 64% 30.04 in 6.2 mi SE 8.1 mph - N/A   Unknown
1:30 PM 71.6 °F 59.0 °F 64% 30.01 in 6.2 mi SSE 10.4 mph - N/A   Unknown
2:30 PM 71.6 °F 59.0 °F 64% 30.01 in 6.2 mi SSE 11.5 mph - N/A   Unknown
3:30 PM 71.6 °F 60.8 °F 69% 30.01 in 6.2 mi SSE 11.5 mph - N/A   Scattered Clouds
4:30 PM 69.8 °F 60.8 °F 73% 30.04 in 6.2 mi South 10.4 mph - N/A   Scattered Clouds
5:30 PM 68.0 °F 60.8 °F 78% 30.04 in 6.2 mi South 9.2 mph - N/A   Mostly Cloudy
6:30 PM 68.0 °F 60.8 °F 78% 30.06 in 6.2 mi SSW 13.8 mph - N/A   Mostly Cloudy
8:30 PM 66.2 °F 62.6 °F 88% 30.09 in 6.2 mi South 8.1 mph - N/A   Mostly Cloudy
9:30 PM 64.4 °F 60.8 °F 88% 30.12 in 6.2 mi SSW 9.2 mph - N/A   Mostly Cloudy
10:30 PM 64.4 °F 60.8 °F 88% 30.09 in 6.2 mi South 9.2 mph - N/A   Mostly Cloudy
11:30 PM 64.4 °F 60.8 °F 88% 30.09 in 6.2 mi South 6.9 mph - N/A   Mostly Cloudy